Weather in Solovyevsk

Russia / Amur Oblast     54°13′20″N   124°25′59″E
temp.,
°C
wind,
m/s
gust,
m/s
humid.,
%
clouds,
%
prec.,
mm/h
press.,
hPa
HPBL,
m
25 june, sat
sat2500:00+16n237316 0.0 99841
03:00+15n237227 0.0 99845
06:00+17n247165 0.0 99984
09:00+24nne244694 0.0 999604
12:00+29ene462614 0.0 9983389
15:00+29ne452555 0.0 9973512
18:00+25ne224224 0.0 9981068
21:00+19ne016673 0.0 100111
26 june, sun
sun2600:00+20wsw115591 0.0 100113
03:00+17se226494 0.0 100337
06:00+16e127223 0.0 100489
09:00+21se234912 0.0 1004524
12:00+26sse23375 0.0 10031274
15:00+28s333166 0.0 10022795
18:00+27ssw133913 0.0 10011478
21:00+20wnw1164100 0.0 100315
27 june, mon
mon2700:00+16ene117688 0.1 100411
03:00+15e1187100 0.4 100411
06:00+16e1288100 0.2 100494
09:00+18sse2475100 0.2 1004415
12:00+19ssw3776100 0.4 1004839
15:00+20s1271100 1.4 1002444
18:00+17w1191100 2.0 100286
21:00+16ssw119287 3.6 100121
28 june, tue
tue2800:00+15ese1196100 0.4 100218
03:00+13ese139991 0.5 1002131
06:00+14ese0199100 0.1 1002122
09:00+15se129898 0.4 1002238
12:00+15ene1198100 1.2 1002125
15:00+17ne238892 1.3 1001377
18:00+21nne346533 0.2 10001109
21:00+16n23885 0.4 100248
29 june, wed
wed2900:00+13n23965 0.0 100348
03:00+12n23964 0.0 100355
06:00+14nnw24874 0.0 1003114
09:00+22nne22582 0.0 1003948
12:00+24e2349100 0.0 10021888
15:00+26e134661 0.2 10021752
18:00+23ese116389 0.0 1002104
21:00+19nnw007945 0.0 100411